QPF
0.03 0.05 0.04 0.03 0.05 0.05 0.07 0.09 0.11 0.15 0.12 0.15 0.19 0.20 0.22 0.24 0.20 0.14 0.10 0.09 0.06 0.04 0.02 0.01 0.01 0.00 0.00 0.00 0.00 0.00 0.00 0.00 0.00 0.00 0.00 0.00 0.00 0.00 0.00 0.00 0.00 0.00 0.00
0.03 0.06 0.06 0.05 0.06 0.06 0.06 0.06 0.07 0.12 0.12 0.13 0.19 0.22 0.21 0.21 0.21 0.17 0.12 0.11 0.08 0.05 0.02 0.01 0.01 0.00 0.00 0.00 0.00 0.00 0.00 0.00 0.00 0.00 0.00 0.00 0.00 0.00 0.00 0.00 0.00 0.00 0.00
0.05 0.05 0.07 0.06 0.06 0.07 0.06 0.04 0.05 0.08 0.11 0.12 0.18 0.26 0.28 0.25 0.23 0.20 0.15 0.12 0.09 0.06 0.03 0.02 0.01 0.00 0.00 0.00 0.00 0.00 0.00 0.00 0.00 0.00 0.00 0.00 0.00 0.00 0.00 0.00 0.00 0.00 0.00
0.05 0.06 0.08 0.07 0.06 0.08 0.07 0.04 0.04 0.06 0.09 0.11 0.14 0.23 0.31 0.29 0.22 0.20 0.16 0.14 0.09 0.06 0.03 0.02 0.01 0.00 0.00 0.00 0.00 0.00 0.00 0.00 0.00 0.00 0.00 0.00 0.00 0.00 0.00 0.00 0.00 0.00 0.00
0.04 0.06 0.09 0.09 0.08 0.11 0.10 0.06 0.05 0.06 0.07 0.10 0.12 0.16 0.25 0.30 0.26 0.22 0.19 0.17 0.13 0.08 0.04 0.03 0.01 0.01 0.00 0.00 0.00 0.00 0.00 0.00 0.00 0.00 0.00 0.00 0.00 0.00 0.00 0.00 0.00 0.00 0.00
0.03 0.05 0.09 0.11 0.10 0.14 0.16 0.10 0.08 0.07 0.07 0.09 0.12 0.15 0.20 0.27 0.31 0.28 0.23 0.19 0.16 0.10 0.06 0.04 0.02 0.01 0.00 0.00 0.00 0.00 0.00 0.00 0.00 0.00 0.00 0.00 0.00 0.00 0.00 0.00 0.00 0.00 0.00
0.03 0.05 0.08 0.10 0.10 0.13 0.16 0.11 0.08 0.08 0.09 0.10 0.11 0.13 0.16 0.21 0.28 0.31 0.28 0.23 0.19 0.12 0.07 0.06 0.04 0.01 0.00 0.00 0.00 0.00 0.00 0.00 0.00 0.00 0.00 0.00 0.00 0.00 0.00 0.00 0.00 0.00 0.00
0.03 0.06 0.07 0.08 0.07 0.09 0.13 0.10 0.08 0.07 0.08 0.11 0.11 0.12 0.14 0.18 0.22 0.27 0.29 0.26 0.21 0.13 0.07 0.06 0.05 0.03 0.01 0.00 0.00 0.00 0.00 0.00 0.00 0.00 0.00 0.00 0.00 0.00 0.00 0.00 0.00 0.00 0.00
0.03 0.05 0.06 0.06 0.05 0.07 0.09 0.08 0.08 0.09 0.09 0.09 0.10 0.11 0.14 0.17 0.19 0.20 0.24 0.25 0.23 0.17 0.10 0.07 0.05 0.03 0.03 0.02 0.01 0.00 0.00 0.00 0.00 0.00 0.00 0.00 0.00 0.00 0.00 0.00 0.00 0.00 0.00
0.02 0.03 0.05 0.05 0.04 0.06 0.08 0.05 0.06 0.10 0.10 0.09 0.09 0.09 0.12 0.16 0.18 0.18 0.20 0.22 0.21 0.18 0.11 0.09 0.06 0.03 0.02 0.02 0.01 0.00 0.00 0.00 0.00 0.00 0.00 0.00 0.00 0.00 0.00 0.00 0.00 0.00 0.00
0.02 0.02 0.03 0.04 0.03 0.05 0.08 0.05 0.03 0.08 0.11 0.09 0.07 0.06 0.10 0.16 0.20 0.19 0.17 0.18 0.19 0.17 0.12 0.09 0.08 0.04 0.02 0.01 0.01 0.00 0.00 0.00 0.00 0.00 0.00 0.00 0.00 0.00 0.00 0.00 0.00 0.00 0.00
0.02 0.02 0.03 0.04 0.02 0.04 0.07 0.06 0.03 0.06 0.12 0.11 0.07 0.06 0.07 0.13 0.21 0.22 0.20 0.18 0.17 0.16 0.13 0.10 0.09 0.06 0.03 0.02 0.01 0.00 0.01 0.01 0.00 0.00 0.00 0.00 0.00 0.00 0.00 0.00 0.00 0.00 0.00
0.02 0.02 0.02 0.03 0.03 0.03 0.05 0.06 0.03 0.04 0.09 0.13 0.11 0.07 0.07 0.10 0.15 0.23 0.23 0.20 0.17 0.13 0.11 0.10 0.08 0.06 0.04 0.02 0.01 0.01 0.00 0.00 0.00 0.00 0.00 0.00 0.00 0.00 0.00 0.00 0.00 0.00 0.00
0.02 0.03 0.02 0.03 0.04 0.03 0.05 0.05 0.04 0.03 0.05 0.10 0.13 0.11 0.09 0.09 0.11 0.16 0.25 0.25 0.20 0.14 0.10 0.09 0.07 0.05 0.04 0.03 0.02 0.01 0.00 0.00 0.00 0.00 0.00 0.00 0.00 0.00 0.00 0.00 0.00 0.00 0.01
0.02 0.02 0.02 0.02 0.04 0.03 0.04 0.04 0.04 0.04 0.03 0.05 0.09 0.12 0.11 0.10 0.11 0.13 0.17 0.25 0.25 0.17 0.11 0.08 0.07 0.05 0.04 0.04 0.03 0.02 0.00 0.00 0.00 0.00 0.00 0.00 0.01 0.00 0.00 0.00 0.01 0.01 0.01
0.02 0.02 0.02 0.02 0.03 0.03 0.03 0.04 0.03 0.03 0.02 0.03 0.05 0.09 0.11 0.11 0.12 0.12 0.13 0.16 0.22 0.20 0.13 0.08 0.07 0.06 0.05 0.04 0.03 0.02 0.01 0.00 0.00 0.00 0.00 0.00 0.01 0.01 0.01 0.01 0.01 0.01 0.01
0.02 0.02 0.02 0.02 0.03 0.02 0.01 0.02 0.03 0.03 0.02 0.03 0.04 0.07 0.08 0.10 0.11 0.10 0.12 0.14 0.15 0.17 0.16 0.10 0.06 0.05 0.04 0.05 0.05 0.04 0.03 0.01 0.01 0.01 0.01 0.01 0.01 0.01 0.01 0.01 0.01 0.01 0.01
0.02 0.02 0.02 0.02 0.02 0.02 0.01 0.01 0.02 0.03 0.03 0.02 0.05 0.07 0.06 0.08 0.09 0.10 0.11 0.14 0.13 0.12 0.15 0.14 0.09 0.06 0.04 0.04 0.04 0.04 0.04 0.03 0.02 0.01 0.01 0.01 0.02 0.01 0.01 0.01 0.01 0.01 0.01
0.03 0.02 0.01 0.02 0.02 0.01 0.02 0.02 0.02 0.02 0.03 0.02 0.06 0.07 0.05 0.05 0.07 0.09 0.09 0.12 0.12 0.11 0.12 0.13 0.11 0.09 0.07 0.05 0.04 0.04 0.04 0.04 0.03 0.02 0.02 0.01 0.01 0.02 0.02 0.01 0.01 0.01 0.01
0.03 0.02 0.01 0.01 0.02 0.01 0.01 0.02 0.01 0.02 0.02 0.04 0.07 0.06 0.04 0.04 0.04 0.06 0.08 0.10 0.11 0.10 0.10 0.12 0.11 0.09 0.09 0.08 0.06 0.04 0.03 0.04 0.04 0.02 0.01 0.02 0.02 0.02 0.02 0.01 0.01 0.01 0.01
0.03 0.02 0.02 0.02 0.01 0.01 0.01 0.02 0.02 0.02 0.03 0.06 0.07 0.04 0.03 0.03 0.03 0.04 0.07 0.10 0.10 0.09 0.09 0.10 0.11 0.10 0.08 0.08 0.07 0.07 0.04 0.03 0.02 0.03 0.02 0.02 0.04 0.04 0.03 0.02 0.01 0.02 0.01
0.03 0.02 0.02 0.02 0.01 0.01 0.01 0.02 0.02 0.02 0.05 0.06 0.04 0.04 0.03 0.03 0.03 0.04 0.06 0.10 0.09 0.10 0.10 0.09 0.10 0.10 0.09 0.09 0.08 0.08 0.08 0.06 0.04 0.03 0.03 0.04 0.06 0.07 0.06 0.04 0.03 0.02 0.01
0.03 0.02 0.02 0.01 0.01 0.01 0.01 0.02 0.02 0.04 0.06 0.05 0.03 0.03 0.04 0.03 0.03 0.05 0.07 0.08 0.10 0.10 0.12 0.10 0.08 0.09 0.09 0.09 0.09 0.08 0.09 0.09 0.07 0.06 0.07 0.08 0.10 0.10 0.08 0.07 0.05 0.03 0.02
0.03 0.02 0.02 0.01 0.01 0.01 0.02 0.03 0.04 0.05 0.05 0.03 0.03 0.03 0.04 0.04 0.04 0.06 0.07 0.07 0.09 0.11 0.10 0.09 0.07 0.07 0.07 0.08 0.07 0.07 0.08 0.09 0.08 0.07 0.08 0.09 0.10 0.10 0.08 0.07 0.05 0.02 0.01
0.03 0.02 0.02 0.01 0.02 0.03 0.04 0.06 0.06 0.05 0.04 0.03 0.03 0.04 0.05 0.05 0.07 0.07 0.07 0.07 0.06 0.08 0.07 0.06 0.06 0.07 0.07 0.07 0.07 0.06 0.06 0.07 0.07 0.08 0.08 0.09 0.08 0.07 0.06 0.04 0.02 0.02 0.02
0.04 0.03 0.03 0.03 0.04 0.05 0.08 0.07 0.05 0.04 0.03 0.04 0.04 0.05 0.06 0.07 0.08 0.07 0.07 0.08 0.07 0.08 0.09 0.08 0.07 0.06 0.07 0.08 0.09 0.08 0.07 0.08 0.09 0.10 0.09 0.08 0.06 0.05 0.03 0.03 0.02 0.02 0.02
MSLP
1006.86 1006.62 1006.22 1005.69 1005.06 1004.39 1003.75 1003.18 1002.72 1002.37 1002.12 1001.96 1001.86 1001.80 1001.80 1001.86 1002.02 1002.31 1002.76 1003.38 1004.17 1005.10 1006.15 1007.24 1008.34 1009.39 1010.35 1011.22 1011.98 1012.65 1013.24 1013.77 1014.26 1014.70 1015.10 1015.46 1015.77 1016.02 1016.23 1016.39 1016.53 1016.66 1016.79
1007.00 1006.86 1006.55 1006.06 1005.46 1004.79 1004.13 1003.53 1003.03 1002.64 1002.36 1002.16 1002.02 1001.93 1001.89 1001.91 1002.04 1002.29 1002.71 1003.30 1004.06 1004.97 1005.98 1007.05 1008.11 1009.12 1010.05 1010.89 1011.64 1012.32 1012.94 1013.51 1014.06 1014.56 1015.02 1015.41 1015.74 1015.98 1016.16 1016.27 1016.36 1016.43 1016.52
1007.02 1007.00 1006.79 1006.38 1005.82 1005.17 1004.49 1003.86 1003.32 1002.88 1002.54 1002.29 1002.10 1001.97 1001.88 1001.88 1001.97 1002.20 1002.60 1003.17 1003.91 1004.80 1005.78 1006.81 1007.83 1008.79 1009.68 1010.49 1011.23 1011.91 1012.55 1013.17 1013.77 1014.33 1014.85 1015.29 1015.63 1015.88 1016.04 1016.12 1016.16 1016.20 1016.25
1006.86 1006.98 1006.89 1006.58 1006.09 1005.47 1004.80 1004.14 1003.55 1003.05 1002.65 1002.33 1002.08 1001.89 1001.77 1001.72 1001.79 1002.00 1002.38 1002.93 1003.66 1004.53 1005.48 1006.48 1007.46 1008.38 1009.23 1010.02 1010.74 1011.42 1012.09 1012.75 1013.40 1014.02 1014.58 1015.06 1015.44 1015.70 1015.85 1015.92 1015.93 1015.94 1015.97
1006.55 1006.80 1006.84 1006.65 1006.24 1005.68 1005.02 1004.36 1003.73 1003.18 1002.71 1002.32 1002.00 1001.75 1001.56 1001.47 1001.50 1001.68 1002.04 1002.57 1003.28 1004.13 1005.06 1006.03 1006.98 1007.88 1008.71 1009.47 1010.19 1010.88 1011.56 1012.26 1012.94 1013.61 1014.22 1014.74 1015.15 1015.43 1015.58 1015.65 1015.66 1015.66 1015.70
1006.13 1006.51 1006.68 1006.60 1006.29 1005.79 1005.18 1004.53 1003.88 1003.29 1002.77 1002.31 1001.92 1001.59 1001.34 1001.18 1001.16 1001.29 1001.61 1002.11 1002.80 1003.62 1004.53 1005.48 1006.42 1007.30 1008.12 1008.88 1009.60 1010.30 1011.00 1011.72 1012.43 1013.13 1013.77 1014.32 1014.75 1015.05 1015.23 1015.31 1015.34 1015.35 1015.41
1005.66 1006.14 1006.42 1006.45 1006.24 1005.83 1005.29 1004.67 1004.04 1003.44 1002.88 1002.37 1001.91 1001.51 1001.18 1000.94 1000.83 1000.89 1001.15 1001.60 1002.24 1003.02 1003.92 1004.85 1005.79 1006.67 1007.50 1008.27 1009.00 1009.71 1010.43 1011.15 1011.88 1012.58 1013.24 1013.80 1014.25 1014.58 1014.78 1014.89 1014.96 1015.02 1015.11
1005.20 1005.74 1006.09 1006.21 1006.10 1005.79 1005.33 1004.79 1004.21 1003.63 1003.07 1002.53 1002.02 1001.55 1001.13 1000.79 1000.58 1000.54 1000.70 1001.07 1001.65 1002.39 1003.25 1004.18 1005.11 1006.02 1006.86 1007.66 1008.41 1009.13 1009.85 1010.57 1011.29 1011.99 1012.64 1013.21 1013.67 1014.02 1014.26 1014.42 1014.53 1014.65 1014.80
1004.77 1005.31 1005.70 1005.89 1005.86 1005.65 1005.30 1004.86 1004.36 1003.85 1003.32 1002.79 1002.25 1001.71 1001.21 1000.76 1000.44 1000.27 1000.32 1000.58 1001.06 1001.74 1002.56 1003.48 1004.41 1005.34 1006.22 1007.04 1007.81 1008.55 1009.27 1009.98 1010.69 1011.37 1012.00 1012.56 1013.04 1013.41 1013.69 1013.90 1014.08 1014.26 1014.47
1004.37 1004.87 1005.25 1005.47 1005.51 1005.40 1005.16 1004.84 1004.47 1004.05 1003.60 1003.10 1002.56 1001.98 1001.39 1000.84 1000.39 1000.09 999.99 1000.13 1000.51 1001.10 1001.87 1002.76 1003.70 1004.65 1005.55 1006.41 1007.21 1007.96 1008.68 1009.38 1010.07 1010.72 1011.34 1011.89 1012.37 1012.77 1013.10 1013.37 1013.61 1013.87 1014.15
1003.97 1004.39 1004.73 1004.94 1005.02 1005.00 1004.88 1004.70 1004.47 1004.18 1003.83 1003.40 1002.88 1002.29 1001.64 1000.99 1000.41 999.97 999.73 999.73 999.98 1000.48 1001.18 1002.04 1002.97 1003.93 1004.86 1005.75 1006.57 1007.34 1008.07 1008.76 1009.42 1010.06 1010.66 1011.21 1011.70 1012.14 1012.51 1012.85 1013.17 1013.50 1013.85
1003.58 1003.89 1004.15 1004.33 1004.43 1004.47 1004.46 1004.42 1004.34 1004.20 1003.97 1003.63 1003.16 1002.56 1001.88 1001.15 1000.46 999.89 999.51 999.37 999.49 999.88 1000.50 1001.31 1002.22 1003.17 1004.13 1005.04 1005.89 1006.68 1007.41 1008.10 1008.76 1009.39 1009.98 1010.54 1011.06 1011.54 1011.97 1012.38 1012.78 1013.17 1013.59
1003.21 1003.39 1003.55 1003.67 1003.77 1003.86 1003.95 1004.03 1004.09 1004.08 1003.98 1003.74 1003.34 1002.77 1002.06 1001.28 1000.51 999.82 999.31 999.04 999.04 999.32 999.85 1000.58 1001.46 1002.40 1003.36 1004.28 1005.16 1005.97 1006.72 1007.42 1008.08 1008.72 1009.33 1009.91 1010.46 1010.99 1011.49 1011.97 1012.44 1012.91 1013.40
1002.90 1002.95 1003.00 1003.05 1003.13 1003.24 1003.39 1003.57 1003.74 1003.86 1003.88 1003.74 1003.41 1002.88 1002.18 1001.37 1000.53 999.76 999.14 998.75 998.63 998.79 999.22 999.88 1000.70 1001.61 1002.56 1003.49 1004.38 1005.21 1005.99 1006.71 1007.40 1008.06 1008.70 1009.33 1009.93 1010.52 1011.09 1011.65 1012.19 1012.73 1013.28
1002.69 1002.63 1002.57 1002.55 1002.58 1002.68 1002.87 1003.11 1003.37 1003.58 1003.70 1003.64 1003.38 1002.90 1002.23 1001.42 1000.55 999.72 999.02 998.52 998.29 998.34 998.66 999.23 999.97 1000.83 1001.75 1002.68 1003.58 1004.44 1005.24 1006.01 1006.74 1007.45 1008.14 1008.82 1009.49 1010.15 1010.80 1011.43 1012.05 1012.65 1013.25
1002.64 1002.47 1002.32 1002.21 1002.18 1002.26 1002.44 1002.70 1003.01 1003.29 1003.46 1003.48 1003.28 1002.86 1002.23 1001.44 1000.56 999.70 998.93 998.36 998.03 997.97 998.18 998.64 999.29 1000.09 1000.97 1001.88 1002.79 1003.67 1004.52 1005.34 1006.13 1006.90 1007.66 1008.41 1009.16 1009.89 1010.61 1011.32 1012.01 1012.68 1013.34
1002.74 1002.49 1002.24 1002.05 1001.95 1001.98 1002.13 1002.38 1002.69 1002.99 1003.21 1003.27 1003.14 1002.77 1002.19 1001.43 1000.57 999.70 998.89 998.25 997.83 997.66 997.76 998.11 998.67 999.39 1000.22 1001.12 1002.04 1002.96 1003.86 1004.75 1005.61 1006.46 1007.30 1008.14 1008.96 1009.77 1010.57 1011.35 1012.10 1012.83 1013.54
1002.96 1002.62 1002.29 1002.02 1001.85 1001.81 1001.90 1002.12 1002.41 1002.71 1002.94 1003.04 1002.94 1002.63 1002.10 1001.39 1000.56 999.69 998.86 998.17 997.66 997.39 997.38 997.62 998.08 998.73 999.52 1000.41 1001.35 1002.32 1003.29 1004.26 1005.22 1006.16 1007.10 1008.02 1008.92 1009.81 1010.67 1011.52 1012.33 1013.11 1013.86
1003.21 1002.80 1002.39 1002.04 1001.79 1001.67 1001.71 1001.87 1002.12 1002.40 1002.63 1002.75 1002.69 1002.43 1001.96 1001.30 1000.50 999.64 998.80 998.05 997.47 997.10 996.98 997.12 997.50 998.09 998.84 999.73 1000.72 1001.75 1002.82 1003.90 1004.96 1006.02 1007.05 1008.06 1009.05 1010.00 1010.93 1011.82 1012.68 1013.51 1014.29
1003.38 1002.90 1002.42 1001.99 1001.67 1001.49 1001.46 1001.57 1001.78 1002.03 1002.26 1002.39 1002.37 1002.16 1001.74 1001.12 1000.36 999.51 998.65 997.85 997.20 996.74 996.52 996.57 996.88 997.42 998.17 999.09 1000.14 1001.27 1002.45 1003.65 1004.84 1006.02 1007.15 1008.26 1009.32 1010.34 1011.32 1012.26 1013.15 1014.00 1014.81
1003.39 1002.84 1002.29 1001.81 1001.43 1001.19 1001.11 1001.17 1001.35 1001.58 1001.81 1001.96 1001.97 1001.80 1001.42 1000.85 1000.10 999.26 998.37 997.52 996.80 996.26 995.95 995.93 996.19 996.71 997.48 998.46 999.60 1000.85 1002.17 1003.50 1004.84 1006.14 1007.39 1008.58 1009.71 1010.79 1011.81 1012.78 1013.70 1014.57 1015.39
1003.20 1002.59 1001.99 1001.46 1001.04 1000.77 1000.66 1000.69 1000.85 1001.08 1001.31 1001.47 1001.51 1001.36 1001.02 1000.46 999.73 998.87 997.95 997.05 996.25 995.64 995.27 995.19 995.42 995.96 996.78 997.84 999.09 1000.48 1001.95 1003.44 1004.92 1006.34 1007.70 1008.98 1010.18 1011.30 1012.35 1013.34 1014.27 1015.15 1015.98
1002.83 1002.17 1001.54 1000.98 1000.55 1000.26 1000.14 1000.17 1000.33 1000.56 1000.80 1000.97 1001.02 1000.90 1000.56 1000.01 999.26 998.37 997.40 996.45 995.59 994.91 994.49 994.39 994.62 995.20 996.09 997.25 998.63 1000.17 1001.79 1003.43 1005.04 1006.59 1008.05 1009.40 1010.65 1011.81 1012.88 1013.89 1014.83 1015.72 1016.54
1002.35 1001.66 1001.02 1000.47 1000.04 999.77 999.65 999.69 999.86 1000.09 1000.34 1000.51 1000.56 1000.43 1000.08 999.50 998.72 997.79 996.78 995.76 994.85 994.14 993.69 993.59 993.85 994.48 995.46 996.73 998.24 999.92 1001.68 1003.46 1005.19 1006.84 1008.38 1009.79 1011.08 1012.27 1013.36 1014.37 1015.32 1016.21 1017.04
1001.89 1001.19 1000.55 1000.02 999.61 999.36 999.28 999.33 999.51 999.74 999.97 1000.13 1000.15 999.99 999.60 998.99 998.16 997.18 996.12 995.07 994.13 993.39 992.95 992.87 993.18 993.89 994.96 996.34 997.97 999.77 1001.65 1003.53 1005.36 1007.08 1008.66 1010.11 1011.43 1012.63 1013.73 1014.75 1015.70 1016.60 1017.44
1001.54 1000.85 1000.24 999.73 999.36 999.14 999.07 999.13 999.30 999.51 999.71 999.82 999.79 999.57 999.13 998.46 997.58 996.56 995.47 994.41 993.47 992.76 992.36 992.34 992.72 993.51 994.67 996.16 997.88 999.77 1001.72 1003.67 1005.54 1007.29 1008.90 1010.36 1011.68 1012.88 1013.98 1015.01 1015.98 1016.90 1017.75
Thickness
5579 5583 5589 5597 5602 5606 5610 5616 5622 5628 5634 5639 5644 5649 5655 5661 5665 5670 5671 5674 5675 5675 5675 5673 5672 5670 5668 5667 5665 5663 5660 5657 5657 5652 5649 5649 5649 5648 5646 5644 5641 5637 5633
5569 5573 5581 5589 5593 5597 5601 5606 5613 5620 5626 5632 5638 5644 5649 5654 5658 5662 5665 5668 5669 5670 5671 5670 5668 5666 5664 5662 5661 5658 5655 5652 5652 5648 5642 5639 5638 5639 5641 5638 5635 5632 5628
5562 5567 5572 5580 5585 5589 5593 5600 5606 5612 5618 5624 5631 5635 5640 5645 5650 5656 5658 5662 5664 5665 5665 5665 5664 5662 5661 5659 5657 5655 5651 5647 5646 5646 5642 5636 5633 5633 5633 5633 5630 5627 5623
5559 5562 5566 5572 5579 5585 5589 5594 5600 5607 5611 5617 5624 5629 5634 5640 5647 5651 5654 5657 5659 5661 5661 5661 5660 5659 5657 5655 5653 5651 5648 5645 5642 5640 5641 5639 5637 5630 5625 5625 5624 5622 5618
5554 5557 5562 5567 5574 5580 5584 5590 5595 5600 5606 5611 5618 5624 5629 5635 5641 5645 5648 5650 5652 5655 5656 5656 5656 5654 5653 5651 5649 5647 5645 5643 5640 5637 5635 5633 5632 5630 5623 5618 5616 5614 5612
5551 5553 5557 5561 5568 5574 5579 5585 5590 5595 5601 5607 5614 5620 5624 5629 5633 5639 5642 5643 5647 5650 5652 5652 5652 5651 5649 5647 5646 5644 5641 5639 5637 5634 5632 5629 5626 5623 5620 5615 5611 5608 5606
5547 5549 5552 5557 5561 5567 5573 5579 5585 5590 5596 5602 5609 5616 5620 5625 5629 5634 5637 5639 5642 5646 5649 5648 5648 5647 5646 5644 5642 5640 5638 5635 5633 5630 5628 5626 5624 5622 5618 5612 5607 5604 5600
5542 5544 5547 5552 5557 5561 5566 5573 5579 5584 5591 5598 5604 5611 5616 5620 5625 5630 5632 5637 5640 5644 5646 5644 5645 5644 5643 5641 5639 5636 5633 5631 5629 5626 5624 5621 5619 5617 5614 5609 5602 5596 5592
5538 5540 5542 5547 5552 5556 5561 5568 5573 5579 5586 5593 5599 5605 5610 5616 5620 5625 5628 5633 5636 5640 5641 5641 5641 5640 5639 5637 5635 5632 5630 5627 5625 5622 5620 5617 5615 5612 5609 5605 5600 5591 5584
5532 5534 5536 5541 5547 5552 5557 5562 5568 5573 5580 5587 5595 5601 5606 5611 5616 5620 5624 5628 5632 5636 5637 5637 5637 5636 5635 5634 5631 5629 5627 5623 5621 5619 5616 5613 5610 5607 5603 5599 5595 5589 5582
5525 5528 5532 5537 5541 5546 5550 5556 5561 5566 5572 5579 5588 5593 5600 5605 5611 5616 5620 5625 5629 5632 5634 5634 5633 5632 5631 5630 5627 5626 5623 5620 5617 5615 5612 5609 5606 5601 5597 5593 5589 5583 5577
5519 5523 5527 5531 5534 5539 5544 5549 5555 5560 5566 5572 5579 5587 5593 5599 5605 5612 5616 5620 5624 5627 5630 5630 5629 5629 5628 5627 5625 5622 5620 5617 5614 5612 5608 5605 5601 5597 5592 5587 5582 5577 5572
5512 5516 5519 5523 5527 5532 5536 5542 5547 5553 5559 5566 5572 5579 5586 5593 5599 5606 5610 5615 5619 5622 5625 5626 5626 5625 5625 5624 5622 5620 5617 5614 5611 5608 5605 5601 5597 5592 5587 5582 5577 5571 5566
5504 5507 5511 5515 5519 5525 5529 5535 5540 5545 5552 5558 5564 5571 5579 5587 5594 5600 5605 5610 5614 5618 5621 5622 5622 5622 5621 5621 5619 5616 5613 5609 5607 5604 5601 5597 5593 5589 5583 5578 5572 5566 5559
5498 5501 5503 5507 5512 5517 5522 5528 5533 5538 5543 5549 5556 5563 5571 5579 5586 5593 5599 5604 5608 5613 5615 5617 5617 5618 5617 5617 5615 5612 5609 5605 5601 5598 5595 5593 5589 5585 5580 5574 5567 5561 5553
5491 5495 5498 5501 5504 5509 5515 5520 5525 5531 5536 5542 5549 5556 5563 5571 5578 5584 5592 5597 5601 5606 5609 5611 5613 5613 5613 5613 5611 5609 5604 5600 5596 5593 5589 5586 5582 5578 5573 5568 5563 5557 5549
5483 5486 5490 5493 5498 5502 5508 5513 5519 5525 5531 5537 5543 5549 5556 5563 5570 5576 5583 5589 5594 5599 5602 5605 5607 5608 5608 5607 5606 5603 5600 5595 5592 5588 5584 5579 5576 5571 5565 5560 5554 5548 5544
5473 5477 5481 5487 5492 5497 5502 5507 5513 5518 5524 5530 5537 5543 5550 5556 5562 5568 5574 5581 5587 5591 5595 5598 5601 5602 5602 5601 5599 5597 5593 5590 5587 5583 5580 5575 5570 5565 5559 5552 5545 5539 5534
5465 5469 5474 5479 5486 5490 5496 5500 5506 5511 5517 5524 5530 5537 5543 5548 5554 5559 5565 5572 5578 5584 5587 5590 5593 5595 5595 5594 5593 5590 5586 5582 5580 5577 5574 5570 5565 5560 5554 5546 5538 5530 5524
5458 5463 5467 5473 5478 5483 5488 5493 5498 5504 5511 5518 5524 5530 5535 5541 5546 5552 5558 5564 5569 5575 5579 5582 5585 5587 5588 5587 5586 5583 5580 5576 5572 5569 5566 5563 5559 5554 5548 5541 5534 5524 5516
5452 5456 5461 5465 5471 5476 5481 5486 5491 5498 5505 5511 5518 5523 5528 5534 5539 5544 5550 5556 5560 5566 5570 5573 5576 5579 5581 5580 5579 5577 5575 5572 5567 5563 5559 5557 5552 5547 5541 5536 5530 5523 5512
5444 5449 5453 5458 5464 5469 5473 5480 5485 5492 5498 5504 5510 5516 5521 5526 5531 5537 5542 5548 5552 5557 5561 5564 5567 5569 5571 5572 5572 5570 5568 5566 5562 5559 5554 5550 5545 5539 5533 5527 5522 5514 5505
5435 5439 5443 5449 5455 5460 5466 5471 5479 5485 5490 5496 5502 5508 5514 5519 5524 5529 5534 5540 5544 5549 5553 5556 5558 5560 5562 5562 5563 5562 5560 5558 5555 5552 5548 5543 5537 5531 5524 5520 5514 5505 5497
5427 5431 5435 5440 5446 5452 5457 5464 5471 5477 5482 5488 5494 5500 5505 5511 5516 5522 5527 5532 5537 5542 5545 5547 5549 5550 5552 5553 5553 5551 5550 5547 5544 5541 5537 5533 5527 5521 5516 5510 5503 5496 5490
5421 5423 5427 5432 5439 5444 5450 5457 5462 5468 5473 5479 5485 5491 5497 5502 5508 5514 5520 5525 5530 5536 5541 5543 5544 5545 5545 5547 5547 5546 5542 5539 5537 5532 5526 5520 5514 5509 5504 5499 5493 5487 5481
5414 5417 5421 5426 5431 5437 5444 5449 5455 5460 5465 5470 5475 5481 5487 5493 5500 5505 5510 5515 5521 5527 5531 5535 5537 5539 5540 5538 5537 5537 5535 5531 5528 5525 5519 5514 5509 5504 5499 5492 5485 5479 5473